GW6068 Weather Reports


time (UTC)temp
F
wind
direction
speed
knots
gust
knots
rain 1hr
in
rain 24hr
in
rain mn
in
humidity
%
barometer
mb
20260502162147 61 299 10.4 11.3 0.00 0.00 0.00 36 1065.4
20260502161644 61 290 6.1 9.6 0.00 0.00 0.00 36 1065.4
20260502161140 61 295 8.7 10.4 0.00 0.00 0.00 36 1065.5
20260502160638 61 298 7.8 11.3 0.00 0.00 0.00 36 1065.4
20260502160137 60 287 7.8 12.2 0.00 0.00 0.00 37 1065.4
20260502152051 58 268 12.2 14.8 0.00 0.00 0.00 37 1065.8
20260502151548 57 271 10.4 13.0 0.00 0.00 0.00 37 1066.2
20260502151046 57 276 9.6 11.3 0.00 0.00 0.00 38 1066.2
20260502150543 57 283 9.6 13.0 0.00 0.00 0.00 38 1066.1
20260502130428 49 97 1.7 2.6 0.00 0.00 0.00 50 1067.4
20260502123410 47 77 2.6 2.6 0.00 0.00 0.00 53 1067.5
20260502122908 47 84 2.6 3.5 0.00 0.00 0.00 52 1067.6
20260502122404 47 197 0.0 3.5 0.00 0.00 0.00 51 1067.4
20260502121902 47 142 1.7 3.5 0.00 0.00 0.00 51 1067.1
20260502121359 47 146 5.2 7.8 0.00 0.00 0.00 51 1067.2
20260502120856 47 147 3.5 5.2 0.00 0.00 0.00 52 1067.2
20260502120352 47 111 1.7 2.6 0.00 0.00 0.00 51 1067.4
20260502115850 47 83 1.7 3.5 0.00 0.00 0.00 51 1067.6
20260502115347 46 146 4.3 5.2 0.00 0.00 0.00 53 1068.0
20260502114843 46 75 0.9 2.6 0.00 0.00 0.00 53 1067.9
20260502114340 47 117 1.7 3.5 0.00 0.00 0.00 51 1068.0
20260502113837 47 105 1.7 2.6 0.00 0.00 0.00 50 1068.0
20260502113335 47 93 1.7 3.5 0.00 0.00 0.00 50 1068.1
20260502112833 47 137 1.7 3.5 0.00 0.00 0.00 50 1068.1
20260502112330 47 238 2.6 6.1 0.00 0.00 0.00 49 1068.4
20260502111827 45 244 3.5 5.2 0.00 0.00 0.00 53 1068.2
20260502111325 44 125 1.7 3.5 0.00 0.00 0.00 54 1068.4
20260502110822 44 57 1.7 2.6 0.00 0.00 0.00 54 1068.2
20260502110320 44 102 2.6 3.5 0.00 0.00 0.00 54 1068.6
20260502105817 44 76 2.6 2.6 0.00 0.00 0.00 53 1068.8
20260502105314 44 99 3.5 3.5 0.00 0.00 0.00 53 1068.7
20260502104812 44 88 2.6 3.5 0.00 0.00 0.00 53 1068.6
20260502104309 44 97 1.7 4.3 0.00 0.00 0.00 53 1068.6
20260502103806 43 88 2.6 5.2 0.00 0.00 0.00 53 1068.7
20260502103303 43 93 1.7 4.3 0.00 0.00 0.00 53 1068.7
20260502102801 44 88 3.5 3.5 0.00 0.00 0.00 53 1068.8
20260502102257 45 101 2.6 3.5 0.00 0.00 0.00 51 1068.7
20260502101755 45 99 2.6 3.5 0.00 0.00 0.00 50 1068.7
20260502101253 45 112 0.0 3.5 0.00 0.00 0.00 49 1068.8
20260502100750 46 118 1.7 2.6 0.00 0.00 0.00 49 1068.8
20260502100249 46 147 1.7 3.5 0.00 0.00 0.00 49 1068.8
20260502091223 46 78 1.7 2.6 0.00 0.00 0.00 48 1069.6
20260502090721 46 124 0.9 1.7 0.00 0.00 0.00 48 1069.5
20260502090217 46 199 0.0 0.9 0.00 0.00 0.00 48 1069.9
20260502071113 47 176 3.5 4.3 0.00 0.00 0.00 43 1070.2
20260502070611 48 106 0.9 3.5 0.00 0.00 0.00 43 1070.5
20260502070108 48 136 3.5 3.5 0.00 0.00 0.00 43 1070.5
20260502065606 48 158 3.5 5.2 0.00 0.00 0.00 42 1070.4
20260502065104 47 163 1.7 2.6 0.00 0.00 0.00 43 1070.4
20260502064602 46 173 1.7 2.6 0.00 0.00 0.00 44 1070.5
20260502064059 46 191 0.0 1.7 0.00 0.00 0.00 45 1070.8
20260502063557 46 92 1.7 1.7 0.00 0.00 0.00 45 1070.7
20260502063054 45 146 2.6 4.3 0.00 0.00 0.00 46 1070.7
20260502062551 44 100 2.6 3.5 0.00 0.00 0.00 47 1071.0
20260502062049 44 96 2.6 4.3 0.00 0.00 0.00 48 1070.9
20260502061547 44 92 3.5 3.5 0.00 0.00 0.00 48 1071.1
20260502061044 44 98 2.6 3.5 0.00 0.00 0.00 47 1071.1
20260502060539 44 89 4.3 4.3 0.00 0.00 0.00 46 1071.1
20260502060036 45 80 3.5 4.3 0.00 0.00 0.00 45 1071.1
20260502055533 46 103 3.5 4.3 0.00 0.00 0.00 43 1071.1
20260502055032 46 103 2.6 4.3 0.00 0.00 0.00 43 1071.3
20260502054530 46 114 3.5 4.3 0.00 0.00 0.00 43 1071.2
20260502054027 45 75 3.5 4.3 0.00 0.00 0.00 44 1071.1
20260502053524 45 91 3.5 5.2 0.00 0.00 0.00 44 1071.2
20260502053022 45 83 5.2 6.1 0.00 0.00 0.00 44 1071.1
20260502052520 46 97 3.5 4.3 0.00 0.00 0.00 43 1071.2
20260502052018 48 98 1.7 2.6 0.00 0.00 0.00 41 1071.1
20260502051516 49 98 3.5 3.5 0.00 0.00 0.00 40 1071.0
20260502051013 48 98 2.6 2.6 0.00 0.00 0.00 41 1071.2
20260502050509 49 86 1.7 2.6 0.00 0.00 0.00 40 1071.3
20260502050006 47 105 1.7 1.7 0.00 0.00 0.00 42 1071.3
20260502045503 47 137 3.5 3.5 0.00 0.00 0.00 43 1071.4
20260502045000 47 111 1.7 1.7 0.00 0.00 0.00 42 1071.3
20260502044455 48 89 2.6 3.5 0.00 0.00 0.00 41 1071.3
20260502043953 48 80 2.6 3.5 0.00 0.00 0.00 40 1071.4
20260502043450 49 76 2.6 2.6 0.00 0.00 0.00 39 1071.3
20260502042949 48 86 1.7 2.6 0.00 0.00 0.00 40 1071.4
20260502042447 49 92 2.6 2.6 0.00 0.00 0.00 39 1071.5
20260502041944 49 83 1.7 2.6 0.00 0.00 0.00 38 1071.4
20260502041442 49 89 2.6 2.6 0.00 0.00 0.00 39 1071.5
20260502040939 49 83 1.7 2.6 0.00 0.00 0.00 38 1071.6
20260502040435 49 86 1.7 1.7 0.00 0.00 0.00 38 1071.6
20260502035932 50 92 1.7 2.6 0.00 0.00 0.00 37 1071.5
20260502035428 50 91 1.7 2.6 0.00 0.00 0.00 37 1071.6
20260502034926 50 37 0.9 1.7 0.00 0.00 0.00 37 1071.7
20260502034425 50 86 1.7 2.6 0.00 0.00 0.00 36 1071.7
20260502033922 51 130 0.0 0.0 0.00 0.00 0.00 35 1071.5
20260502033420 51 76 1.7 1.7 0.00 0.00 0.00 35 1071.7
20260502032916 51 80 0.9 1.7 0.00 0.00 0.00 35 1071.7
20260502032413 52 72 0.9 1.7 0.00 0.00 0.00 34 1071.8
20260502031910 51 40 0.9 0.9 0.00 0.00 0.00 35 1071.9
20260502031408 51 11 0.0 1.7 0.00 0.00 0.00 35 1071.7
20260502030906 51 73 0.0 1.7 0.00 0.00 0.00 35 1071.7
20260502030404 52 85 1.7 1.7 0.00 0.00 0.00 35 1071.6
20260502025902 52 55 0.0 1.7 0.00 0.00 0.00 35 1071.5
20260502025358 52 120 0.0 0.9 0.00 0.00 0.00 34 1071.6
20260502024856 53 122 0.0 0.9 0.00 0.00 0.00 34 1071.6
20260502024354 54 179 0.0 1.7 0.00 0.00 0.00 34 1071.4
20260502023852 54 78 0.9 1.7 0.00 0.00 0.00 34 1071.4
20260502023349 54 0 1.7 1.7 0.00 0.00 0.00 34 1071.5
20260502022847 54 340 0.0 1.7 0.00 0.00 0.00 34 1071.4
20260502022343 54 308 0.9 1.7 0.00 0.00 0.00 33 1071.5
20260502021840 56 311 0.0 1.7 0.00 0.00 0.00 32 1071.3
20260502021337 56 279 1.7 2.6 0.00 0.00 0.00 32 1071.5
20260502020835 55 282 0.9 3.5 0.00 0.00 0.00 32 1071.4
20260502020332 55 301 1.7 1.7 0.00 0.00 0.00 32 1071.4
20260502015829 56 284 1.7 2.6 0.00 0.00 0.00 31 1071.4
20260502015326 57 282 1.7 1.7 0.00 0.00 0.00 31 1071.6
20260502014823 58 285 1.7 3.5 0.00 0.00 0.00 30 1071.5
20260502014320 58 268 2.6 2.6 0.00 0.00 0.00 29 1071.4
20260502013816 59 269 2.6 3.5 0.00 0.00 0.00 29 1071.5
20260502013312 60 283 2.6 3.5 0.00 0.00 0.00 29 1071.6
20260502012809 60 279 3.5 4.3 0.00 0.00 0.00 28 1071.8
20260502012307 61 273 3.5 5.2 0.00 0.00 0.00 27 1071.6
20260502011803 62 272 3.5 4.3 0.00 0.00 0.00 27 1071.7
20260502011259 62 277 3.5 4.3 0.00 0.00 0.00 26 1071.7
20260502010757 63 274 4.3 5.2 0.00 0.00 0.00 26 1071.6
20260502010253 64 281 3.5 4.3 0.00 0.00 0.00 25 1071.7
20260502005750 64 284 4.3 7.0 0.00 0.00 0.00 24 1071.7
20260502005248 64 290 4.3 10.4 0.00 0.00 0.00 24 1071.8
20260502004745 65 273 3.5 5.2 0.00 0.00 0.00 24 1071.6
20260502004241 66 280 4.3 7.0 0.00 0.00 0.00 23 1071.7
20260502003739 66 280 3.5 9.6 0.00 0.00 0.00 23 1071.8
20260502003236 66 276 5.2 6.1 0.00 0.00 0.00 23 1071.6
20260502002731 66 274 4.3 6.1 0.00 0.00 0.00 23 1071.9
20260502002230 66 308 8.7 11.3 0.00 0.00 0.00 23 1071.9
20260502001726 66 280 6.1 10.4 0.00 0.00 0.00 23 1071.9
20260502001225 67 293 6.1 9.6 0.00 0.00 0.00 23 1071.8
20260502000722 67 308 11.3 13.0 0.00 0.00 0.00 22 1072.1
20260502000220 68 272 6.1 11.3 0.00 0.00 0.00 22 1072.0
20260501235715 67 308 6.1 11.3 0.00 0.00 0.00 22 1072.2
20260501235211 67 347 3.5 7.8 0.00 0.00 0.00 22 1072.1
20260501234707 67 318 8.7 14.8 0.00 0.00 0.00 22 1072.2
20260501234205 66 306 7.0 13.0 0.00 0.00 0.00 23 1072.1
20260501233703 66 303 7.0 13.0 0.00 0.00 0.00 23 1072.3
20260501233159 66 318 9.6 12.2 0.00 0.00 0.00 23 1072.2
20260501232655 67 284 6.1 7.8 0.00 0.00 0.00 22 1072.3
20260501232153 67 288 4.3 8.7 0.00 0.00 0.00 23 1072.1
20260501231650 67 281 6.1 10.4 0.00 0.00 0.00 22 1072.4
20260501231148 67 294 1.7 4.3 0.00 0.00 0.00 23 1072.4
20260501230646 67 272 3.5 6.1 0.00 0.00 0.00 23 1072.4
20260501230144 67 278 5.2 8.7 0.00 0.00 0.00 23 1072.4
20260501225642 66 269 7.0 9.6 0.00 0.00 0.00 23 1072.5
20260501225138 67 323 7.0 12.2 0.00 0.00 0.00 23 1072.6
20260501224635 67 281 3.5 7.8 0.00 0.00 0.00 23 1072.4
20260501224132 66 4 7.8 10.4 0.00 0.00 0.00 23 1072.5
20260501223628 65 312 13.0 15.6 0.00 0.00 0.00 24 1072.6
20260501223125 67 317 6.1 13.9 0.00 0.00 0.00 23 1072.5
20260501222621 67 337 5.2 12.2 0.00 0.00 0.00 23 1072.6
20260501222118 65 315 6.1 11.3 0.00 0.00 0.00 24 1072.6
20260501221615 67 271 5.2 11.3 0.00 0.00 0.00 23 1073.0
20260501221113 66 319 4.3 7.0 0.00 0.00 0.00 24 1073.0
20260501220610 67 334 11.3 13.9 0.00 0.00 0.00 23 1073.1
20260501220107 67 304 8.7 13.0 0.00 0.00 0.00 24 1073.2
20260501215603 67 271 9.6 12.2 0.00 0.00 0.00 24 1073.0
20260501215059 67 268 9.6 12.2 0.00 0.00 0.00 24 1073.4
20260501214554 66 283 5.2 7.8 0.00 0.00 0.00 24 1073.5
20260501214050 66 284 6.1 7.8 0.00 0.00 0.00 24 1073.3
20260501213547 67 349 4.3 11.3 0.00 0.00 0.00 24 1073.4
20260501213043 67 323 2.6 4.3 0.00 0.00 0.00 25 1073.6
20260501212539 65 231 4.3 5.2 0.00 0.00 0.00 26 1073.3
20260501212037 65 231 3.5 5.2 0.00 0.00 0.00 26 1073.7
20260501211533 65 261 6.1 11.3 0.00 0.00 0.00 26 1073.6
20260501211032 65 330 3.5 6.1 0.00 0.00 0.00 26 1073.7
20260501210527 65 273 7.8 10.4 0.00 0.00 0.00 26 1073.7
20260501210024 65 264 6.1 8.7 0.00 0.00 0.00 26 1073.7
20260501205521 64 336 0.0 7.0 0.00 0.00 0.00 27 1073.9
20260501205019 63 349 2.6 3.5 0.00 0.00 0.00 27 1073.9
20260501204514 65 289 3.5 11.3 0.00 0.00 0.00 26 1074.0
20260501204010 63 281 0.0 3.5 0.00 0.00 0.00 28 1074.1
20260501203507 65 257 7.0 18.2 0.00 0.00 0.00 27 1074.1
20260501203005 63 328 4.3 9.6 0.00 0.00 0.00 28 1074.1
20260501202501 64 303 10.4 11.3 0.00 0.00 0.00 28 1074.1
20260501201958 64 263 4.3 9.6 0.00 0.00 0.00 28 1074.1
20260501201455 64 263 5.2 6.1 0.00 0.00 0.00 28 1074.2
20260501200952 63 292 6.1 9.6 0.00 0.00 0.00 30 1074.4
20260501200449 62 333 5.2 9.6 0.00 0.00 0.00 29 1074.1
20260501195946 62 248 5.2 7.0 0.00 0.00 0.00 29 1074.4
20260501195443 62 352 2.6 6.1 0.00 0.00 0.00 29 1074.5
20260501194939 62 20 1.7 3.5 0.00 0.00 0.00 31 1074.6
20260501194435 60 353 4.3 5.2 0.00 0.00 0.00 32 1074.7
20260501193931 59 308 8.7 14.8 0.00 0.00 0.00 31 1074.9
20260501193429 61 311 13.0 15.6 0.00 0.00 0.00 31 1074.8
20260501192927 61 244 9.6 9.6 0.00 0.00 0.00 31 1074.8
20260501192424 61 20 3.5 5.2 0.00 0.00 0.00 32 1074.8
20260501191921 60 50 3.5 7.8 0.00 0.00 0.00 31 1074.8
20260501191418 62 339 8.7 11.3 0.00 0.00 0.00 31 1074.8
20260501190915 61 7 2.6 6.1 0.00 0.00 0.00 32 1074.9
20260501190411 60 263 3.5 5.2 0.00 0.00 0.00 32 1075.0
20260501185911 60 224 5.2 6.1 0.00 0.00 0.00 33 1075.2
20260501185408 60 249 2.6 8.7 0.00 0.00 0.00 32 1075.0
20260501184903 59 259 2.6 8.7 0.00 0.00 0.00 33 1075.2
20260501184400 59 262 8.7 11.3 0.00 0.00 0.00 34 1075.4
20260501183855 58 46 1.7 2.6 0.00 0.00 0.00 34 1075.4
20260501183353 58 12 2.6 9.6 0.00 0.00 0.00 36 1075.3
20260501182849 58 12 3.5 8.7 0.00 0.00 0.00 34 1075.5
20260501182346 58 266 3.5 7.8 0.00 0.00 0.00 35 1075.6
20260501181843 57 199 1.7 3.5 0.00 0.00 0.00 35 1075.6
20260501181340 58 288 2.6 8.7 0.00 0.00 0.00 35 1075.7
20260501180837 57 295 1.7 7.0 0.00 0.00 0.00 36 1075.7
20260501180333 57 305 2.6 6.1 0.00 0.00 0.00 37 1075.7
20260501175831 57 359 1.7 8.7 0.00 0.00 0.00 36 1075.8
20260501175327 57 312 7.8 10.4 0.00 0.00 0.00 36 1075.8
20260501174824 56 106 1.7 5.2 0.00 0.00 0.00 37 1076.0
20260501174321 55 148 2.6 4.3 0.00 0.00 0.00 39 1076.1
20260501173819 56 271 5.2 7.8 0.00 0.00 0.00 38 1076.2
20260501173316 55 298 3.5 9.6 0.00 0.00 0.00 39 1076.1
20260501172812 55 269 2.6 5.2 0.00 0.00 0.00 39 1076.1
20260501172307 54 357 4.3 7.8 0.00 0.00 0.00 39 1076.2
20260501171803 55 297 3.5 7.8 0.00 0.00 0.00 39 1076.2
20260501171300 54 298 3.5 3.5 0.00 0.00 0.00 40 1076.2
20260501170756 54 326 3.5 7.0 0.00 0.00 0.00 39 1076.3
20260501170254 53 192 2.6 3.5 0.00 0.00 0.00 41 1076.3
20260501165751 53 238 3.5 5.2 0.00 0.00 0.00 41 1076.2
20260501165249 53 184 2.6 2.6 0.00 0.00 0.00 41 1076.2
20260501164746 53 120 3.5 6.1 0.00 0.00 0.00 41 1076.2
20260501164243 52 163 1.7 7.0 0.00 0.00 0.00 42 1076.3
20260501163739 53 137 3.5 7.0 0.00 0.00 0.00 41 1076.2
20260501163236 52 158 3.5 4.3 0.00 0.00 0.00 43 1076.1
20260501162732 52 217 3.5 4.3 0.00 0.00 0.00 42 1076.5